Weather Roundup
Issued by NWS Sterling, VA

Home | Current Version | Previous Version | Text Only | Print | Product List | Glossary On
Versions: 1 2 3 4 5 6 7 8 9 10 11 12 13 14 15 16 17 18 19 20 21 22 23 24 25 26 27 28 29 30 31 32 33 34 35 36 37 38 39 40 41 42 43 44 45 46 47 48 49 50
000
NZUS51 KLWX 240011
HRRLWX

HOURLY OBSERVATIONS AROUND THE LWX CWA
800 PM EDT TUE OCT 23 2018

Note: "FAIR" indicates few or no clouds below 12,000 feet
with no significant weather and/or obstructions to visibility.

 * =Non NWS site. Station does not report significant weather
    and/or obstructions to visibility.

...DOWNTOWN AREAS...

CITY           SKY/WX    TMP DP  RH WIND       PRES   REMARKS
WASHINGTON NAT FAIR      61  35  37 N12       30.05R
MD SCIENCE CTR   N/A     61  32  33 MISG      30.03R


...WASHINGTON SUBURBS...

CITY           SKY/WX    TMP DP  RH WIND       PRES   REMARKS
DULLES         FAIR      59  34  39 NW12      30.05R
MANASSAS*      FAIR      59  35  40 NW13      30.04R
LEESBURG*      FAIR      59  37  44 N14       30.07R
GAITHERSBURG*  FAIR      55  34  45 NW8       30.06R
FT BELVOIR     FAIR      62  40  45 NW6G16    30.04R
QUANTICO       FAIR      62  40  44 N5        30.05R
ANDREWS AFB    FAIR      60  34  38 NW8       30.03R
COLLEGE PARK*  FAIR      57  36  44 CALM      30.04R

...CENTRAL VIRGINIA...

CITY           SKY/WX    TMP DP  RH WIND       PRES   REMARKS
CULPEPER*      FAIR      60  31  32 CALM      30.06R
CHARLOTTESVILL FAIR      61  31  32 NW6       30.04R
WARRENTON*     FAIR      55  32  42 N8        30.04R
ORANGE*        FAIR      48  43  81 NW5       30.04R
GORDONSVILLE*  FAIR      57  37  47 NW3       30.03R
STAFFORD*      FAIR      60  39  46 NE3       30.08R
FREDERICKSBRG* FAIR      57  50  77 NW6       30.03R
LOUISA*        FAIR      51  43  76 CALM      30.07R
ASHLAND        FAIR      52  49  89 CALM      30.04R
RICHMOND       FAIR      60  46  59 SW10      30.03R

...NORTHEAST/CENTRAL MARYLAND...

CITY           SKY/WX    TMP DP  RH WIND       PRES   REMARKS
BWI AIRPORT    FAIR      59  33  37 NW5       30.03R
ANNAPOLIS      FAIR      65  38  36 NW8       30.03R
MARTIN AIRPORT CLEAR     57  36  44 NW12      30.04R
WESTMINSTER*   FAIR      55  25  30 W8        30.06R
FREDERICK*     CLEAR     61  32  33 NW10G18   30.07
FORT MEADE*    FAIR      54  37  54 CALM      30.06S

...SOUTHERN MARYLAND...

CITY           SKY/WX    TMP DP  RH WIND       PRES   REMARKS
PATUXENT RIVER FAIR      49  49 100 CALM      30.01R
ST MARYS CITY  FAIR      53  50  89 CALM      30.00R
LEONARDTOWN*   MOCLDY    52  48  87 CALM      30.03R

...MARYLAND EASTERN SHORE...

CITY           SKY/WX    TMP DP  RH WIND       PRES   REMARKS
SALISBURY      FAIR      53  48  83 S5        30.01R
CAMBRIDGE*     MOCLDY    54  50  87 CALM      30.00S
OCEAN CITY     FAIR      54  45  71 SW6       30.01S
BAY BRIDGE AP* FAIR      63  41  45 NW10G18   30.03R
EASTON*        MOCLDY    59  50  72 N7        30.06R

...SHENANDOAH VALLEY...

CITY           SKY/WX    TMP DP  RH WIND       PRES   REMARKS
MARTINSBURG    FAIR      56  31  38 NW8       30.07R
HAGERSTOWN APT MOCLDY    56  34  43 NW14      30.08R
STAUNTON*      FAIR      55  32  41 NW9       30.09R
WINCHESTER*    FAIR      52  34  50 NW7       30.10R
FRONT ROYAL*   FAIR      55  34  44 NW6       30.06R
LURAY*         FAIR      59  30  33 NW8G17    30.07R
NEW MARKET*    FAIR      57  29  34 N3        30.07R
WAYNESBORO*    FAIR      58  28  32 W9        30.07R

...APPALACHIANS...

CITY           SKY/WX    TMP DP  RH WIND       PRES   REMARKS
PETERSBURG WV* FAIR      55  32  41 NW8       30.10R
CUMBERLAND*    FAIR      54  33  43 NW14      30.15R
OAKLAND*       FAIR      41  32  70 NW9       30.10R
HOT SPRINGS*   FAIR      49  35  58 W24G33    30.11R
ELKINS         FAIR      42  33  70 CALM      30.14R
BEDFORD PA*    FAIR      48  31  51 NW13      30.10S
JOHNSTOWN      FAIR      44  32  62 W8        30.10R
ALTOONA        FAIR      50  32  50 NW12G25   30.09R

...SOUTHERN PENNSYLVANIA/DELAWARE...

CITY           SKY/WX    TMP DP  RH WIND       PRES   REMARKS
YORK           FAIR      52  34  50 NW7       30.05R
WILMINGTON     FAIR      55  34  45 NW6       30.01R

...MARINE OBSERVATIONS...

STATION/POSITION TIME  TEMP    WIND        PRES
                       AIR SEA DIR/SP/G
                 (UTC) (F)     (DEG/KT/KT) (MB)
THOMAS PT LIGHT  0000   63 63  320/ 15/ 17 1017.9R
COVE POINT       2336   65     270/  8/  8 1016.6R
BALT KEY BRIDGE  2336   63     320/ 13/ 16 1016.6R
LEWISETTA        2336   59 60  250/  3/  3 1016.0R
SOLOMONS ISLAND  2336   60 65  340/  2/  3 1015.9R
PINEY POINT      2336          250/  2/  3   N/A




USA.gov is the U.S. government's official web portal to all federal, state and local government web resources and services.